Weather History for Parkersburg, WV

Change the Weather History Date:

Tuesday, January 21, 2014

  Actual Average Record
Temperature  
Mean Temperature 20 °F 31 °F  
Max Temperature 32 °F 40 °F 74 °F (1906)
Min Temperature 7 °F 23 °F -20 °F (1985)
Degree Days  
Heating Degree Days 45 34  
Month to date heating degree days 726 707  
Since 1 July heating degree days 2676 2617  
Cooling Degree Days 0 0  
Month to date cooling degree days 0 0  
Year to date cooling degree days 0 0  
Moisture  
Dew Point 16 °F    
Average Humidity 71    
Maximum Humidity 92    
Minimum Humidity 49    
Precipitation  
Precipitation 0.16 in 0.10 in 0.54 in (2012)
Month to date precipitation 2.02 1.99  
Year to date precipitation 2.02 1.99  
Sea Level Pressure  
Sea Level Pressure 29.91 in    
Wind  
Wind Speed 10 mph (North)    
Max Wind Speed 20 mph    
Max Gust Speed 29 mph    
Visibility 4 miles    
Events Snow    
T = Trace of Precipitation, MM = Missing Value Source: NWS Daily Summary

Daily Weather History Graph

Daily Weather History Graph

Search for Another Location

Airport:

Trip Planner

Search our weather history database for the weather conditions in past years. The results will help you decide how hot, cold, wet, or windy it might be!

Date:

Astronomy

Jan. 21, 2014 Rise Set
Actual Time 7:41 AM EST 5:33 PM EST
Civil Twilight 7:12 AM EST 6:02 PM EST
Nautical Twilight 6:39 AM EST 6:35 PM EST
Astronomical Twilight 6:07 AM EST 7:07 PM EST
Moon 11:02 PM EST (1/21) 10:12 AM EST (1/21)
Length of Visible Light 10h 50m
Length of Day
9h 52m
Waning Gibbous, 75% of the Moon is Illuminated
Jan 21
Waning Gibbous
Jan 24
Last Quarter
Jan 30
New
Feb 6
First Quarter
Feb 14
Full

Hourly Weather History & Observations

Time (EST) Temp. Windchill Dew Point Humidity Pressure Visibility Wind Dir Wind Speed Gust Speed Precip Events Conditions
12:37 AM 30.9 °F 24.3 °F 24.1 °F 76% 29.90 in 10.0 mi NNE 6.9 mph - N/A   Overcast
12:53 AM 30.9 °F 26.2 °F 24.1 °F 76% 29.91 in 10.0 mi North 4.6 mph - N/A   Overcast
1:53 AM 30.0 °F 24.1 °F 21.9 °F 72% 29.90 in 10.0 mi North 5.8 mph - N/A   Overcast
2:26 AM 30.0 °F 23.2 °F 24.1 °F 79% 29.87 in 2.5 mi NNE 6.9 mph - 0.00 in Snow Light Snow
2:38 AM 28.9 °F 22.8 °F 25.0 °F 85% 29.87 in 1.2 mi NE 5.8 mph - 0.00 in Snow Light Snow
2:53 AM 28.9 °F 22.8 °F 26.1 °F 89% 29.88 in 1.2 mi NE 5.8 mph - 0.01 in Snow Light Snow
3:01 AM 28.9 °F 21.9 °F 26.1 °F 89% 29.86 in 0.8 mi NE 6.9 mph - 0.00 in Snow Light Snow
3:17 AM 28.9 °F 23.9 °F 26.1 °F 89% 29.85 in 1.0 mi NNE 4.6 mph - 0.01 in Snow Light Snow
3:30 AM 28.9 °F 22.8 °F 26.1 °F 89% 29.84 in 0.8 mi NNE 5.8 mph - 0.03 in Snow Light Snow
3:41 AM 28.0 °F 22.8 °F 26.1 °F 92% 29.84 in 1.2 mi North 4.6 mph - 0.03 in Snow Light Snow
3:53 AM 28.0 °F 20.8 °F 25.0 °F 88% 29.84 in 1.2 mi NNE 6.9 mph - 0.04 in Snow Light Snow
4:38 AM 28.0 °F 20.0 °F 25.0 °F 88% 29.80 in 0.8 mi NNE 8.1 mph - 0.03 in Snow Light Snow
4:46 AM 28.0 °F 20.8 °F 25.0 °F 88% 29.80 in 1.0 mi NNE 6.9 mph - 0.04 in Snow Light Snow
4:53 AM 28.0 °F 20.0 °F 25.0 °F 88% 29.83 in 1.2 mi NNE 8.1 mph - 0.04 in Snow Light Snow
5:53 AM 28.0 °F 20.8 °F 26.1 °F 92% 29.84 in 1.2 mi North 6.9 mph - 0.03 in Snow Light Snow
6:02 AM 28.0 °F 22.8 °F 26.1 °F 92% 29.82 in 1.8 mi North 4.6 mph - 0.01 in Snow Light Snow
6:53 AM 28.0 °F 18.6 °F 25.0 °F 88% 29.83 in 1.2 mi NNE 10.4 mph - 0.02 in Snow Light Snow
7:53 AM 26.1 °F 17.6 °F 23.0 °F 88% 29.83 in 1.2 mi North 8.1 mph - 0.01 in Snow Light Snow
7:59 AM 26.1 °F 16.2 °F 23.0 °F 88% 29.81 in 1.2 mi NNE 10.4 mph - 0.00 in Snow Light Snow
8:53 AM 25.0 °F 14.2 °F 21.0 °F 85% 29.85 in 2.5 mi NNE 11.5 mph - 0.00 in Snow Light Snow
9:38 AM 23.0 °F 10.6 °F 18.0 °F 81% 29.85 in 1.8 mi North 13.8 mph 21.9 mph 0.00 in Snow Light Snow
9:53 AM 23.0 °F 9.6 °F 18.0 °F 81% 29.88 in 1.2 mi North 16.1 mph 21.9 mph 0.00 in Snow Light Snow
10:21 AM 21.9 °F 9.8 °F 18.0 °F 85% 29.86 in 0.8 mi North 12.7 mph - 0.00 in Snow Light Snow
10:53 AM 21.9 °F 10.4 °F 16.0 °F 78% 29.90 in 1.0 mi North 11.5 mph 23.0 mph 0.01 in Snow Light Snow
11:53 AM 21.0 °F 11.4 °F 15.1 °F 78% 29.91 in 1.0 mi North 8.1 mph 20.7 mph 0.00 in Snow Light Snow
12:53 PM 19.9 °F 7.3 °F 14.0 °F 78% 29.91 in 1.0 mi North 12.7 mph 25.3 mph 0.00 in Snow Light Snow
1:53 PM 19.9 °F 5.2 °F 10.9 °F 68% 29.92 in 2.5 mi NNE 17.3 mph 28.8 mph 0.00 in Snow Light Snow
2:00 PM 19.9 °F 7.3 °F 10.0 °F 65% 29.89 in 5.0 mi NNE 12.7 mph 26.5 mph 0.00 in Snow Light Snow
2:11 PM 19.9 °F 7.3 °F 10.0 °F 65% 29.89 in 4.0 mi NNE 12.7 mph 23.0 mph 0.00 in Snow Light Snow
2:24 PM 19.9 °F 6.7 °F 10.0 °F 65% 29.89 in 3.0 mi North 13.8 mph 18.4 mph 0.00 in Snow Light Snow
2:37 PM 21.0 °F 7.6 °F 9.0 °F 60% 29.89 in 6.0 mi North 15.0 mph 23.0 mph 0.00 in Snow Light Snow
2:53 PM 21.9 °F 11.0 °F 8.1 °F 55% 29.92 in 10.0 mi North 10.4 mph 24.2 mph 0.00 in   Mostly Cloudy
3:53 PM 21.9 °F 8.7 °F 6.1 °F 51% 29.97 in 10.0 mi North 15.0 mph 25.3 mph N/A   Partly Cloudy
4:53 PM 19.0 °F 7.5 °F 6.1 °F 57% 30.01 in 10.0 mi North 10.4 mph - N/A   Overcast
5:53 PM 18.0 °F 9.8 °F 3.9 °F 54% 30.04 in 10.0 mi North 5.8 mph - N/A   Overcast
6:53 PM 17.1 °F 5.8 °F 1.9 °F 52% 30.08 in 10.0 mi North 9.2 mph - N/A   Overcast
7:53 PM 15.1 °F -0.1 °F 1.0 °F 54% 30.10 in 10.0 mi North 15.0 mph 21.9 mph N/A   Overcast
8:53 PM 14.0 °F 2.0 °F -2.0 °F 49% 30.12 in 10.0 mi North 9.2 mph - N/A   Overcast
9:53 PM 12.0 °F -0.4 °F -2.0 °F 53% 30.13 in 10.0 mi North 9.2 mph - N/A   Overcast
10:53 PM 9.0 °F -3.2 °F -5.1 °F 53% 30.15 in 10.0 mi NW 8.1 mph - N/A   Scattered Clouds
11:53 PM 7.0 °F -5.7 °F -7.1 °F 53% 30.16 in 10.0 mi NNW 8.1 mph - N/A   Clear